Home > Weather > Ashgabat > Past weeks

Flag for Turkmenistan Past Weather in Ashgabat, Turkmenistan — Yesterday and Last 2 Weeks

Now
88 °F

Clear.


Feels Like: 85 °F
Forecast: 80 / 101 °F
Wind: 3 mph from Southwest

Location: Ashgabat

Current Time: Jul 24, 2016 at 12:18:43 AM

Latest Report: Jul 23, 2016 at 11:00 PM


Visibility: 4 mi

Pressure: 29.65 "Hg

Humidity: 27%

Dew Point: 50 °F

Location of AshgabatLocation

Past Weather in Ashgabat — Graph

°F

Ashgabat Temperature Yesterday

Maximum temperature yesterday: 106 °F (at 3:00 PM)
Minimum temperature yesterday: 79 °F (at 6:00 AM)
Average temperature yesterday: 93 °F

High & Low Weather Summary for the Past Weeks

 TemperatureHumidityPressure
High109 °F (Jul 20, 5:00 PM)74% (Jul 13, 3:00 PM)30.04 "Hg (Jul 13, 3:00 PM)
Low73 °F (Jul 15, 5:00 AM)9% (Jul 23, 5:00 PM)29.53 "Hg (Jul 11, 6:00 PM)
Average91 °F30%29.75 "Hg
* Reported Jul 8 11:00 PM — Jul 23 11:00 PM, Ashgabat, Weather by CustomWeather, © 2016

Note: Actual official high and low records may vary slightly from our data, if they occured in-between our weather recording intervals... More about our weather records

Advertising

Ashgabat Weather History for the Previous 24 Hours

Scroll right to see more
 ConditionsComfort  
Time TempWeatherWind HumidityBarometerVisibility
11:00 PM
Sat, Jul 23
88 °FClear.3 mph27%29.65 "Hg4 mi
10:00 PM91 °FClear.3 mph26%29.65 "Hg2 mi
9:00 PM95 °FSunny.5 mph23%29.62 "Hg6 mi
8:00 PM99 °FSunny.5 mph19%29.62 "Hg6 mi
7:00 PM102 °FSunny.7 mph15%29.62 "HgN/A
6:00 PM106 °FSunny.7 mph11%29.62 "HgN/A
5:00 PM106 °FSunny.5 mph9%29.65 "HgN/A
4:00 PM106 °FSunny.3 mph11%29.65 "HgN/A
3:00 PM106 °FSunny.7 mph10%29.65 "HgN/A
2:00 PM104 °FSunny.3 mph12%29.68 "HgN/A
1:00 PM102 °FSunny.5 mph11%29.68 "HgN/A
12:00 PM100 °FSunny.8 mph11%29.71 "HgN/A
11:00 AM97 °FSunny.5 mph12%29.71 "Hg6 mi
10:00 AM93 °FSunny.6 mph14%29.74 "Hg6 mi
9:00 AM90 °FSunny.6 mph24%29.74 "HgN/A
8:00 AM86 °FSunny.3 mph24%29.74 "Hg3 mi
7:00 AM81 °FClear.2 mph26%29.71 "Hg6 mi
6:00 AM79 °FClear.3 mph28%29.71 "HgN/A
5:00 AM82 °FClear.8 mph23%29.71 "HgN/A
4:00 AM82 °FClear.8 mph26%29.74 "HgN/A
3:00 AM82 °FClear.7 mph32%29.74 "HgN/A
2:00 AM88 °FClear.5 mph25%29.74 "Hg6 mi
1:00 AM86 °FClear.2 mph27%29.77 "Hg6 mi
12:00 AM90 °FClear.7 mph24%29.77 "Hg6 mi
Weather by CustomWeather, © 2016

See weather overviewHow to use our weather pages